FW7316 Weather Reports


Display with metric or nautical units.
time (UTC)temp
F
wind
direction
speed
MPH
gust
MPH
rain 1hr
in
rain 24hr
in
rain mn
in
humidity
%
barometer
mb
20260507054201 56 319 4.0 4.0 0.00 0.08 0.00 81 1011.8
20260507054104 56 319 3.0 4.0 0.00 0.08 0.00 81 1011.8
20260507054005 56 326 4.0 4.0 0.00 0.08 0.00 81 1011.8
20260507053802 56 320 2.0 4.0 0.00 0.08 0.00 81 1011.8
20260507053702 56 158 3.0 4.0 0.00 0.08 0.00 81 1011.7
20260507053600 56 158 2.0 4.0 0.00 0.08 0.00 81 1011.8
20260507053502 56 158 3.0 3.0 0.00 0.08 0.00 81 1011.7
20260507053402 56 158 2.0 3.0 0.00 0.08 0.00 81 1011.8
20260507053300 56 158 3.0 3.0 0.00 0.08 0.00 81 1011.7
20260507053203 56 158 2.0 4.0 0.00 0.08 0.00 81 1011.7
20260507053102 56 158 2.0 4.0 0.00 0.08 0.00 81 1011.7
20260507052801 55 158 2.0 4.0 0.00 0.08 0.00 81 1011.7
20260507052703 55 158 1.0 4.0 0.00 0.08 0.00 81 1011.7
20260507052604 55 158 2.0 4.0 0.00 0.08 0.00 82 1011.7
20260507052500 55 158 3.0 4.0 0.00 0.08 0.00 82 1011.7
20260507052413 55 158 3.0 4.0 0.00 0.08 0.00 82 1011.7
20260507052305 55 158 2.0 4.0 0.00 0.08 0.00 83 1011.7
20260507052159 55 158 3.0 4.0 0.00 0.08 0.00 83 1011.7
20260507052102 54 158 3.0 3.0 0.00 0.08 0.00 82 1011.7
20260507052006 54 158 1.0 3.0 0.00 0.08 0.00 83 1011.7
20260507051900 54 158 1.0 3.0 0.00 0.08 0.00 82 1011.7
20260507051803 54 158 2.0 3.0 0.00 0.08 0.00 82 1011.7
20260507051703 54 211 2.0 3.0 0.00 0.08 0.00 83 1011.6
20260507051600 54 211 0.0 4.0 0.00 0.08 0.00 83 1011.6
20260507051505 54 211 0.0 4.0 0.00 0.08 0.00 83 1011.6
20260507051403 54 211 0.0 4.0 0.00 0.08 0.00 83 1011.6
20260507051300 54 211 2.0 4.0 0.00 0.08 0.00 83 1011.6
20260507051201 54 211 1.0 5.0 0.00 0.08 0.00 83 1011.6
20260507051002 54 211 1.0 6.0 0.00 0.08 0.00 83 1011.6
20260507050902 54 211 1.0 6.0 0.00 0.08 0.00 83 1011.5
20260507050802 54 211 0.0 6.0 0.00 0.08 0.00 83 1011.6
20260507050700 53 211 2.0 6.0 0.00 0.08 0.00 83 1011.5
20260507050503 53 211 2.0 7.0 0.00 0.08 0.00 84 1011.5
20260507050401 53 208 1.0 7.0 0.00 0.08 0.00 84 1011.4
20260507050302 53 208 2.0 8.0 0.00 0.08 0.00 84 1011.4
20260507050006 53 209 6.0 8.0 0.00 0.08 0.00 84 1011.4
20260507045903 53 202 4.0 8.0 0.00 0.14 0.00 84 1011.3
20260507045800 53 205 5.0 8.0 0.00 0.14 0.00 85 1011.4
20260507045702 53 209 6.0 8.0 0.00 0.14 0.00 85 1011.3
20260507045604 53 197 5.0 8.0 0.00 0.14 0.00 85 1011.3
20260507045459 52 190 6.0 8.0 0.00 0.14 0.00 85 1011.3
20260507045359 52 189 7.0 8.0 0.00 0.14 0.00 85 1011.3
20260507045331 52 186 7.0 7.0 0.00 0.14 0.00 85 1011.3
20260507045159 52 205 5.0 7.0 0.00 0.14 0.00 85 1011.3
20260507045059 52 208 6.0 7.0 0.00 0.14 0.00 86 1011.3
20260507044900 52 207 5.0 7.0 0.00 0.14 0.00 86 1011.3
20260507044800 52 214 5.0 7.0 0.00 0.14 0.00 86 1011.3
20260507044559 51 209 6.0 7.0 0.00 0.14 0.00 86 1011.2
20260507044500 51 213 4.0 7.0 0.00 0.14 0.00 86 1011.3
20260507044402 51 215 6.0 7.0 0.00 0.14 0.00 85 1011.3
20260507044259 51 214 4.0 6.0 0.00 0.14 0.00 85 1011.3
20260507044102 51 213 4.0 6.0 0.00 0.14 0.00 85 1011.3
20260507044001 51 223 5.0 6.0 0.00 0.14 0.00 85 1011.3
20260507043900 51 227 4.0 6.0 0.00 0.14 0.00 85 1011.3
20260507043803 51 211 5.0 6.0 0.00 0.14 0.00 85 1011.3
20260507043700 51 207 5.0 6.0 0.00 0.14 0.00 85 1011.3
20260507043600 51 201 5.0 5.0 0.00 0.14 0.00 85 1011.2
20260507043503 51 199 4.0 5.0 0.00 0.14 0.00 85 1011.2
20260507043400 51 196 3.0 5.0 0.00 0.14 0.00 85 1011.2
20260507043259 51 196 4.0 5.0 0.00 0.14 0.00 85 1011.2
20260507043203 51 198 4.0 5.0 0.00 0.14 0.00 84 1011.2
20260507043111 51 208 4.0 5.0 0.00 0.14 0.00 84 1011.2
20260507043000 51 229 4.0 4.0 0.00 0.14 0.00 84 1011.2
20260507042905 51 200 3.0 4.0 0.00 0.14 0.00 84 1011.2
20260507042800 51 196 3.0 5.0 0.00 0.14 0.00 84 1011.2
20260507042713 51 196 2.0 5.0 0.00 0.14 0.00 84 1011.2
20260507042606 51 196 2.0 5.0 0.00 0.14 0.00 84 1011.2
20260507042500 51 196 3.0 5.0 0.00 0.14 0.00 84 1011.1
20260507042402 51 206 4.0 5.0 0.00 0.14 0.00 84 1011.2
20260507042307 51 200 3.0 5.0 0.00 0.14 0.00 84 1011.2
20260507042159 51 200 3.0 5.0 0.00 0.14 0.00 84 1011.1
20260507042102 51 200 1.0 5.0 0.00 0.14 0.00 84 1011.1
20260507042023 51 200 1.0 5.0 0.00 0.14 0.00 84 1011.1
20260507041901 51 200 4.0 5.0 0.00 0.14 0.00 84 1011.1
20260507041705 52 200 3.0 4.0 0.00 0.14 0.00 83 1011.1
20260507041600 52 200 3.0 4.0 0.00 0.14 0.00 83 1011.0
20260507041502 52 200 3.0 4.0 0.00 0.14 0.00 83 1011.1
20260507041403 52 184 2.0 4.0 0.00 0.14 0.00 83 1011.1
20260507041301 52 184 3.0 4.0 0.00 0.14 0.00 83 1011.1
20260507041201 52 184 3.0 4.0 0.00 0.14 0.00 83 1011.0
20260507041102 52 184 3.0 4.0 0.00 0.14 0.00 83 1011.0
20260507041000 52 184 3.0 4.0 0.00 0.14 0.00 83 1011.1
20260507040902 52 184 2.0 4.0 0.00 0.14 0.00 83 1011.0
20260507040802 52 184 2.0 5.0 0.00 0.14 0.00 83 1011.0
20260507040700 52 184 1.0 5.0 0.00 0.14 0.00 83 1011.1
20260507040605 52 184 1.0 5.0 0.00 0.14 0.00 83 1011.1
20260507040400 52 205 2.0 5.0 0.00 0.14 0.00 83 1011.0
20260507040301 52 205 1.0 5.0 0.00 0.14 0.00 83 1011.0
20260507040202 52 205 2.0 5.0 0.00 0.14 0.00 83 1011.0
20260507040117 52 192 3.0 5.0 0.00 0.14 0.00 82 1011.0
20260507040007 52 221 2.0 5.0 0.00 0.14 0.00 82 1010.9
20260507035759 52 232 2.0 4.0 0.00 0.35 0.00 82 1010.9
20260507035702 52 225 1.0 4.0 0.00 0.35 0.00 82 1011.0
20260507035500 52 245 2.0 3.0 0.00 0.35 0.00 82 1010.9
20260507035402 53 332 2.0 4.0 0.00 0.35 0.00 81 1010.9
20260507035200 53 332 0.0 6.0 0.00 0.35 0.00 81 1010.9
20260507035004 53 186 1.0 6.0 0.00 0.35 0.00 81 1010.9
20260507034859 53 186 0.0 6.0 0.00 0.35 0.00 81 1010.8
20260507034801 53 186 2.0 6.0 0.00 0.35 0.00 81 1010.8
20260507034702 53 186 1.0 6.0 0.00 0.35 0.00 80 1010.8
20260507034602 53 186 1.0 6.0 0.00 0.35 0.00 80 1010.7
20260507034502 53 186 3.0 6.0 0.00 0.35 0.00 79 1010.7
20260507034404 54 346 2.0 6.0 0.00 0.35 0.00 79 1010.6
20260507034300 54 344 5.0 6.0 0.00 0.35 0.00 78 1010.6
20260507034201 54 332 5.0 6.0 0.00 0.35 0.00 78 1010.7
20260507034107 54 344 4.0 6.0 0.00 0.35 0.00 78 1010.7
20260507034007 54 344 3.0 6.0 0.00 0.35 0.00 78 1010.6
20260507033901 54 345 4.0 6.0 0.00 0.35 0.00 77 1010.6
20260507033803 55 345 3.0 6.0 0.00 0.35 0.00 77 1010.6
20260507033700 55 325 3.0 6.0 0.00 0.35 0.00 77 1010.6
20260507033602 55 335 4.0 7.0 0.00 0.35 0.00 77 1010.6
20260507033401 55 319 5.0 7.0 0.00 0.35 0.00 77 1010.6
20260507033302 55 342 2.0 7.0 0.00 0.35 0.00 77 1010.6
20260507033204 55 332 3.0 7.0 0.00 0.35 0.00 77 1010.6
20260507033059 55 309 2.0 7.0 0.00 0.35 0.00 76 1010.6
20260507033002 55 309 3.0 7.0 0.00 0.35 0.00 76 1010.6
20260507032902 55 237 2.0 7.0 0.00 0.35 0.00 75 1010.6
20260507032801 55 237 2.0 7.0 0.00 0.35 0.00 75 1010.5
20260507032703 55 211 6.0 7.0 0.00 0.35 0.00 76 1010.5
20260507032501 55 242 2.0 7.0 0.00 0.35 0.00 76 1010.5
20260507032403 55 242 3.0 7.0 0.00 0.35 0.00 76 1010.5
20260507032305 55 225 4.0 7.0 0.00 0.35 0.00 76 1010.6
20260507032004 56 245 3.0 7.0 0.00 0.35 0.00 76 1010.6
20260507031901 56 242 3.0 7.0 0.00 0.35 0.00 75 1010.6
20260507031800 56 261 2.0 7.0 0.00 0.35 0.00 75 1010.6
20260507031600 56 286 4.0 7.0 0.00 0.35 0.00 75 1010.6
20260507031503 56 286 2.0 7.0 0.00 0.35 0.00 75 1010.5
20260507031402 56 306 5.0 7.0 0.00 0.35 0.00 74 1010.5
20260507031301 57 325 3.0 7.0 0.00 0.35 0.00 76 1010.5
20260507031104 57 316 4.0 7.0 0.00 0.35 0.00 74 1010.5
20260507031000 57 335 5.0 7.0 0.00 0.35 0.00 74 1010.6
20260507030903 57 334 4.0 7.0 0.00 0.35 0.00 74 1010.6
20260507030805 57 331 4.0 7.0 0.00 0.35 0.00 73 1010.6
20260507030659 57 320 5.0 7.0 0.00 0.35 0.00 73 1010.6
20260507030601 58 338 4.0 7.0 0.00 0.35 0.00 73 1010.6
20260507030400 58 355 3.0 7.0 0.00 0.35 0.00 73 1010.5
20260507030202 58 355 7.0 7.0 0.00 0.35 0.00 72 1010.5
20260507030100 58 348 5.0 7.0 0.00 0.35 0.00 72 1010.5
20260507030005 58 13 3.0 8.0 0.00 0.35 0.00 71 1010.4
20260507025902 58 355 4.0 8.0 0.00 0.37 0.00 71 1010.4
20260507025759 59 12 6.0 8.0 0.00 0.37 0.00 68 1010.4
20260507025702 59 355 6.0 8.0 0.00 0.37 0.00 67 1010.4
20260507025602 59 327 4.0 8.0 0.00 0.37 0.00 67 1010.4
20260507025500 59 21 1.0 8.0 0.00 0.37 0.00 67 1010.4
20260507025401 59 201 1.0 8.0 0.00 0.37 0.00 66 1010.3
20260507025306 58 201 1.0 10.0 0.00 0.37 0.00 66 1010.3
20260507025159 58 184 2.0 12.0 0.00 0.37 0.00 67 1010.4
20260507025102 58 194 4.0 12.0 0.00 0.37 0.00 68 1010.4
20260507025004 58 177 6.0 12.0 0.00 0.37 0.00 68 1010.4
20260507024859 58 182 4.0 12.0 0.00 0.37 0.00 68 1010.3
20260507024801 58 200 4.0 12.0 0.00 0.37 0.00 68 1010.3
20260507024703 58 215 6.0 12.0 0.00 0.37 0.00 69 1010.3
20260507024559 58 187 6.0 12.0 0.00 0.37 0.00 69 1010.3
20260507024503 58 187 5.0 12.0 0.00 0.37 0.00 69 1010.2
20260507024404 58 189 5.0 12.0 0.00 0.37 0.00 70 1010.2
20260507024301 58 186 5.0 12.0 0.00 0.37 0.00 70 1010.2
20260507024203 58 195 8.0 11.0 0.00 0.37 0.00 71 1010.2
20260507024105 58 196 7.0 11.0 0.00 0.37 0.00 71 1010.2
20260507024000 58 167 5.0 11.0 0.00 0.37 0.00 71 1010.2
20260507023901 58 182 5.0 13.0 0.00 0.37 0.00 71 1010.2
20260507023802 58 175 5.0 13.0 0.00 0.37 0.00 71 1010.2
20260507023601 58 167 8.0 13.0 0.00 0.37 0.00 71 1010.2
20260507023502 58 176 7.0 13.0 0.00 0.37 0.00 71 1010.3
20260507023301 58 174 5.0 13.0 0.00 0.37 0.00 70 1010.3
20260507023059 58 169 7.0 13.0 0.00 0.37 0.00 71 1010.3
20260507023003 58 170 7.0 13.0 0.00 0.37 0.00 71 1010.3
20260507022903 58 179 7.0 13.0 0.00 0.37 0.00 70 1010.3
20260507022702 58 198 8.0 11.0 0.00 0.37 0.00 71 1010.4
20260507022603 58 182 11.0 12.0 0.00 0.37 0.00 71 1010.4
20260507022501 58 184 9.0 12.0 0.00 0.37 0.00 71 1010.5
20260507022406 58 184 9.0 12.0 0.00 0.37 0.00 71 1010.5
20260507022306 58 192 8.0 11.0 0.00 0.37 0.00 71 1010.5
20260507022159 58 188 6.0 12.0 0.00 0.37 0.00 71 1010.5
20260507022102 58 190 8.0 12.0 0.00 0.37 0.00 71 1010.5
20260507022003 58 223 9.0 11.0 0.00 0.37 0.00 71 1010.5
20260507021900 58 205 10.0 11.0 0.00 0.37 0.00 71 1010.5
20260507021801 59 185 7.0 11.0 0.00 0.37 0.00 71 1010.5
20260507021702 58 211 7.0 11.0 0.00 0.37 0.00 71 1010.5
20260507021559 58 224 8.0 11.0 0.00 0.37 0.00 71 1010.5
20260507021402 59 223 7.0 11.0 0.00 0.37 0.00 71 1010.6
20260507021300 59 229 7.0 11.0 0.00 0.37 0.00 71 1010.6
20260507021103 59 241 8.0 10.0 0.00 0.37 0.00 70 1010.6
20260507021001 59 225 6.0 10.0 0.00 0.37 0.00 70 1010.6
20260507020901 59 233 6.0 10.0 0.00 0.37 0.00 70 1010.6
20260507020659 58 218 8.0 10.0 0.00 0.37 0.00 70 1010.6
20260507020601 58 240 6.0 10.0 0.00 0.37 0.00 71 1010.6
20260507020505 58 211 7.0 10.0 0.00 0.37 0.00 71 1010.6
20260507020400 58 225 5.0 10.0 0.00 0.37 0.00 71 1010.6
20260507020204 58 236 8.0 10.0 0.00 0.37 0.00 72 1010.6
20260507015902 58 229 8.0 8.0 0.00 0.38 0.00 73 1010.6
20260507015801 58 247 5.0 7.0 0.00 0.38 0.00 73 1010.6
20260507015702 58 243 7.0 7.0 0.00 0.38 0.00 73 1010.6
20260507015602 58 249 4.0 6.0 0.00 0.38 0.00 73 1010.6
20260507015200 58 227 2.0 6.0 0.00 0.38 0.00 72 1010.6
20260507015102 58 227 3.0 6.0 0.00 0.38 0.00 72 1010.6
20260507015006 58 227 2.0 7.0 0.00 0.38 0.00 72 1010.6
20260507014859 58 227 4.0 7.0 0.00 0.38 0.00 72 1010.6
20260507014802 58 227 3.0 7.0 0.00 0.38 0.00 72 1010.6
20260507014702 58 213 5.0 7.0 0.00 0.38 0.00 73 1010.6
20260507014605 58 246 2.0 7.0 0.00 0.38 0.00 72 1010.6
20260507014502 58 231 3.0 7.0 0.00 0.38 0.00 72 1010.7
20260507014402 58 254 3.0 7.0 0.00 0.38 0.00 72 1010.7
20260507014259 58 221 4.0 7.0 0.00 0.38 0.00 72 1010.7
20260507014203 58 252 4.0 7.0 0.00 0.38 0.00 73 1010.7
20260507014102 58 246 3.0 7.0 0.00 0.38 0.00 72 1010.6
20260507014002 58 232 3.0 7.0 0.00 0.38 0.00 72 1010.6
20260507013902 58 239 2.0 7.0 0.00 0.38 0.00 72 1010.6
20260507013802 58 239 5.0 8.0 0.00 0.38 0.00 72 1010.6
20260507013559 58 248 5.0 9.0 0.00 0.38 0.00 71 1010.5
20260507013520 58 234 4.0 9.0 0.00 0.38 0.00 71 1010.5
20260507013359 59 242 4.0 9.0 0.00 0.38 0.00 71 1010.4
20260507013300 59 250 2.0 9.0 0.00 0.38 0.00 71 1010.5
20260507013203 59 239 5.0 9.0 0.00 0.38 0.00 71 1010.4
20260507013059 59 239 4.0 9.0 0.00 0.38 0.00 71 1010.4
20260507013000 59 242 5.0 10.0 0.00 0.38 0.00 70 1010.4
20260507012902 59 226 5.0 11.0 0.00 0.38 0.00 71 1010.4
20260507012759 59 239 7.0 11.0 0.00 0.38 0.00 71 1010.4
20260507012659 59 240 7.0 12.0 0.00 0.38 0.00 71 1010.4
20260507012602 59 229 8.0 13.0 0.00 0.38 0.00 71 1010.4
20260507012501 59 233 6.0 13.0 0.00 0.38 0.00 71 1010.5
20260507012400 59 240 6.0 13.0 0.00 0.38 0.00 70 1010.5
20260507012305 59 243 6.0 13.0 0.00 0.38 0.00 70 1010.5
20260507012200 59 240 7.0 13.0 0.00 0.38 0.00 70 1010.4
20260507012059 59 236 7.0 13.0 0.00 0.38 0.00 70 1010.4
20260507012004 59 236 8.0 13.0 0.00 0.38 0.00 70 1010.4
20260507011900 59 232 10.0 13.0 0.00 0.38 0.00 70 1010.4
20260507011801 59 234 11.0 13.0 0.00 0.38 0.00 71 1010.4
20260507011702 59 218 11.0 13.0 0.00 0.38 0.00 71 1010.3
20260507011601 58 229 11.0 12.0 0.00 0.38 0.00 71 1010.4
20260507011500 58 221 12.0 12.0 0.00 0.38 0.00 71 1010.4
20260507011403 58 227 10.0 12.0 0.00 0.38 0.00 72 1010.4
20260507011259 58 233 8.0 9.0 0.00 0.38 0.00 72 1010.4
20260507011200 58 240 7.0 9.0 0.00 0.38 0.00 71 1010.4
20260507011103 58 252 7.0 9.0 0.00 0.38 0.00 72 1010.5
20260507011002 58 230 5.0 9.0 0.00 0.38 0.00 72 1010.4
20260507010859 58 247 4.0 9.0 0.00 0.38 0.00 72 1010.5
20260507010802 58 240 8.0 9.0 0.00 0.38 0.00 72 1010.4
20260507010700 58 220 6.0 8.0 0.00 0.38 0.00 72 1010.5
20260507010601 58 230 7.0 7.0 0.00 0.38 0.00 72 1010.5
20260507010503 58 234 5.0 7.0 0.00 0.38 0.00 72 1010.5
20260507010359 58 240 4.0 8.0 0.00 0.38 0.00 72 1010.5
20260507010259 58 236 7.0 8.0 0.00 0.38 0.00 73 1010.5
20260507010203 58 221 6.0 8.0 0.00 0.38 0.00 72 1010.4
20260507010100 58 225 4.0 8.0 0.00 0.38 0.00 72 1010.4
20260507010003 58 238 3.0 8.0 0.00 0.38 0.00 72 1010.5
20260507005902 58 263 5.0 8.0 0.00 0.42 0.00 72 1010.5
20260507005759 58 232 7.0 8.0 0.00 0.42 0.00 72 1010.5
20260507005659 59 237 5.0 8.0 0.00 0.42 0.00 72 1010.5
20260507005602 59 218 4.0 8.0 0.00 0.42 0.00 72 1010.6
20260507005500 59 230 7.0 8.0 0.00 0.42 0.00 72 1010.6
20260507005400 59 217 8.0 8.0 0.00 0.42 0.00 72 1010.6
20260507005305 59 232 8.0 8.0 0.00 0.42 0.00 72 1010.6
20260507005159 59 242 6.0 9.0 0.00 0.42 0.00 72 1010.6
20260507005059 59 205 4.0 9.0 0.00 0.42 0.00 71 1010.6
20260507005004 59 240 3.0 9.0 0.00 0.42 0.00 71 1010.6
20260507004859 59 221 7.0 9.0 0.00 0.42 0.00 71 1010.7
20260507004801 59 257 6.0 9.0 0.00 0.42 0.00 71 1010.6
20260507004704 59 240 5.0 9.0 0.00 0.42 0.00 71 1010.6
20260507004510 59 237 6.0 9.0 0.00 0.42 0.00 70 1010.6
20260507004404 59 241 5.0 9.0 0.00 0.42 0.00 70 1010.6
20260507004259 59 228 4.0 9.0 0.00 0.42 0.00 70 1010.6
20260507004102 59 244 4.0 9.0 0.00 0.42 0.00 71 1010.7
20260507004001 59 250 7.0 9.0 0.00 0.42 0.00 71 1010.7
20260507003859 59 234 6.0 9.0 0.00 0.42 0.00 71 1010.7
20260507003803 59 227 6.0 9.0 0.00 0.42 0.00 70 1010.7
20260507003700 59 234 7.0 9.0 0.00 0.42 0.00 71 1010.7
20260507003600 59 227 5.0 7.0 0.00 0.42 0.00 71 1010.7
20260507003504 59 250 5.0 7.0 0.00 0.42 0.00 70 1010.7
20260507003359 59 235 6.0 7.0 0.00 0.42 0.00 71 1010.7
20260507003259 59 226 4.0 7.0 0.00 0.42 0.00 70 1010.7
20260507003202 59 220 5.0 7.0 0.00 0.42 0.00 71 1010.7
20260507003101 59 213 5.0 7.0 0.00 0.42 0.00 71 1010.7
20260507003001 59 232 6.0 7.0 0.00 0.42 0.00 71 1010.7
20260507002800 59 235 4.0 7.0 0.00 0.42 0.00 71 1010.6
20260507002700 59 251 4.0 6.0 0.00 0.42 0.00 71 1010.6
20260507002602 60 232 2.0 6.0 0.00 0.42 0.00 70 1010.6
20260507002500 60 242 4.0 6.0 0.00 0.42 0.00 70 1010.6
20260507002359 60 255 3.0 6.0 0.00 0.42 0.00 70 1010.6
20260507002306 60 281 2.0 6.0 0.00 0.42 0.00 69 1010.6
20260507002159 60 275 3.0 6.0 0.00 0.42 0.00 69 1010.6
20260507002059 60 271 4.0 6.0 0.00 0.42 0.00 69 1010.6
20260507002004 60 290 4.0 6.0 0.00 0.42 0.00 69 1010.6
20260507001800 60 254 4.0 8.0 0.00 0.42 0.00 69 1010.5
20260507001704 60 254 3.0 11.0 0.00 0.42 0.00 68 1010.5
20260507001600 60 254 3.0 11.0 0.00 0.42 0.00 68 1010.5
20260507001501 60 254 3.0 12.0 0.00 0.42 0.00 68 1010.5
20260507001403 60 254 2.0 12.0 0.00 0.42 0.00 67 1010.5
20260507001159 60 238 3.0 12.0 0.00 0.42 0.00 68 1010.5
20260507001103 60 243 5.0 12.0 0.00 0.42 0.00 67 1010.6
20260507001001 60 231 2.0 12.0 0.00 0.42 0.00 67 1010.6
20260507000859 60 209 7.0 12.0 0.00 0.42 0.00 67 1010.5
20260507000802 60 225 5.0 12.0 0.00 0.42 0.00 67 1010.5
20260507000659 60 196 10.0 15.0 0.00 0.42 0.00 67 1010.5
20260507000600 60 190 10.0 15.0 0.00 0.42 0.00 67 1010.5
20260507000503 60 201 7.0 15.0 0.00 0.42 0.00 67 1010.5
20260507000359 60 193 4.0 15.0 0.00 0.42 0.00 67 1010.5
20260507000259 60 182 8.0 15.0 0.00 0.42 0.00 67 1010.5
20260507000204 60 159 7.0 15.0 0.00 0.42 0.00 67 1010.5
20260507000112 60 193 7.0 15.0 0.00 0.42 0.00 67 1010.5
20260507000003 60 205 5.0 15.0 0.00 0.42 0.00 67 1010.5
20260506235902 60 173 8.0 15.0 0.00 0.42 0.00 67 1010.5
20260506235800 60 198 12.0 15.0 0.00 0.42 0.00 67 1010.5
20260506235700 60 186 6.0 11.0 0.00 0.42 0.00 68 1010.5
20260506235602 60 188 7.0 11.0 0.00 0.42 0.00 68 1010.6
20260506235500 60 192 4.0 11.0 0.00 0.42 0.00 67 1010.6
20260506235400 60 201 7.0 11.0 0.00 0.42 0.00 67 1010.5
20260506235159 60 194 9.0 11.0 0.00 0.42 0.00 67 1010.5
20260506235059 60 221 10.0 12.0 0.00 0.42 0.00 68 1010.5
20260506235005 60 194 8.0 13.0 0.00 0.42 0.00 68 1010.5
20260506234859 60 185 3.0 13.0 0.00 0.42 0.00 67 1010.6
20260506234759 60 178 9.0 13.0 0.00 0.42 0.00 67 1010.6
20260506234702 60 188 7.0 13.0 0.00 0.42 0.00 67 1010.6
20260506234559 60 186 5.0 13.0 0.00 0.42 0.00 67 1010.6
20260506234403 60 159 3.0 13.0 0.00 0.42 0.00 67 1010.6
20260506234159 60 191 9.0 13.0 0.00 0.42 0.00 68 1010.6
20260506234001 60 202 8.0 11.0 0.00 0.42 0.00 68 1010.7
20260506233859 60 194 5.0 11.0 0.00 0.42 0.00 68 1010.7
20260506233802 60 204 7.0 11.0 0.00 0.42 0.00 68 1010.6
20260506233503 60 220 7.0 11.0 0.00 0.42 0.00 68 1010.7
20260506233300 60 202 4.0 11.0 0.00 0.42 0.00 69 1010.7
20260506233202 60 262 4.0 11.0 0.00 0.42 0.00 69 1010.7
20260506233100 60 248 4.0 11.0 0.00 0.42 0.00 69 1010.7
20260506233004 60 269 4.0 12.0 0.00 0.42 0.00 69 1010.7
20260506232904 60 267 5.0 12.0 0.00 0.42 0.00 69 1010.7
20260506232800 60 247 2.0 12.0 0.00 0.42 0.00 69 1010.8
20260506232701 60 256 2.0 12.0 0.00 0.42 0.00 70 1010.8
20260506232500 60 232 7.0 12.0 0.00 0.42 0.00 70 1010.7
20260506232359 60 250 4.0 13.0 0.00 0.42 0.00 70 1010.7
20260506232306 60 216 4.0 13.0 0.00 0.42 0.00 70 1010.7
20260506232159 61 212 5.0 13.0 0.00 0.42 0.00 70 1010.7
20260506232059 61 228 6.0 13.0 0.00 0.42 0.00 70 1010.7
20260506232005 61 227 11.0 13.0 0.00 0.42 0.00 70 1010.7
20260506231859 61 218 7.0 16.0 0.00 0.42 0.00 70 1010.7
20260506231800 61 240 8.0 16.0 0.00 0.42 0.00 69 1010.6
20260506231702 61 202 6.0 18.0 0.00 0.42 0.00 69 1010.6
20260506231502 61 209 9.0 18.0 0.00 0.42 0.00 69 1010.6
20260506231407 61 206 7.0 21.0 0.00 0.42 0.00 69 1010.6
20260506231200 61 191 10.0 21.0 0.00 0.42 0.00 69 1010.5
20260506231103 61 207 7.0 21.0 0.00 0.42 0.00 69 1010.5
20260506231000 61 197 10.0 21.0 0.00 0.42 0.00 69 1010.6
20260506230900 61 190 10.0 21.0 0.00 0.42 0.00 69 1010.6
20260506230802 61 200 10.0 21.0 0.00 0.42 0.00 70 1010.6
20260506230601 61 211 11.0 21.0 0.00 0.42 0.00 71 1010.7
20260506230506 61 205 11.0 21.0 0.00 0.42 0.00 71 1010.7
20260506230359 61 182 15.0 20.0 0.00 0.42 0.00 71 1010.6
20260506230259 61 192 8.0 20.0 0.00 0.42 0.00 72 1010.7
20260506230003 61 187 9.0 23.0 0.00 0.42 0.00 72 1010.6
20260506225902 61 200 8.0 23.0 0.00 0.43 0.00 72 1010.6
20260506225759 61 227 11.0 23.0 0.00 0.43 0.00 72 1010.7
20260506225602 61 217 18.0 23.0 0.00 0.43 0.00 72 1010.6
20260506225500 61 230 13.0 23.0 0.00 0.43 0.00 72 1010.7
20260506225400 61 224 15.0 23.0 0.00 0.43 0.00 72 1010.6
20260506225159 61 216 18.0 23.0 0.00 0.43 0.00 72 1010.5
20260506225100 61 225 21.0 23.0 0.00 0.43 0.00 72 1010.5
20260506225004 61 232 13.0 23.0 0.00 0.43 0.00 72 1010.5
20260506224900 61 217 20.0 23.0 0.00 0.43 0.00 72 1010.5
20260506224705 61 229 15.0 24.0 0.00 0.43 0.00 72 1010.5
20260506224600 61 198 20.0 24.0 0.00 0.43 0.00 72 1010.5
20260506224500 61 217 21.0 24.0 0.00 0.43 0.00 73 1010.5
20260506224402 61 187 10.0 24.0 0.00 0.43 0.00 73 1010.5
20260506224200 61 196 13.0 24.0 0.00 0.43 0.00 72 1010.5
20260506224102 61 218 18.0 24.0 0.00 0.43 0.00 72 1010.5
20260506223659 61 217 17.0 22.0 0.00 0.43 0.00 72 1010.4
20260506223600 61 225 17.0 22.0 0.00 0.43 0.00 73 1010.4
20260506223504 61 227 16.0 22.0 0.00 0.43 0.00 73 1010.4
20260506223401 61 210 12.0 22.0 0.00 0.43 0.00 73 1010.5
20260506223306 61 211 8.0 22.0 0.00 0.43 0.00 73 1010.5
20260506223202 61 226 11.0 22.0 0.00 0.43 0.00 73 1010.4
20260506223059 61 212 19.0 22.0 0.00 0.43 0.00 73 1010.4
20260506223002 61 190 14.0 22.0 0.00 0.43 0.00 73 1010.4
20260506222906 61 197 12.0 22.0 0.00 0.43 0.00 73 1010.4
20260506222800 61 204 10.0 21.0 0.00 0.43 0.00 73 1010.4
20260506222605 61 192 7.0 21.0 0.00 0.43 0.00 73 1010.5
20260506222500 61 216 11.0 21.0 0.01 0.43 0.00 73 1010.5
20260506222400 61 193 11.0 21.0 0.01 0.43 0.00 73 1010.5
20260506222305 61 215 9.0 21.0 0.01 0.43 0.00 72 1010.5
20260506222203 61 202 12.0 21.0 0.01 0.43 0.00 72 1010.5
20260506222059 61 201 12.0 21.0 0.01 0.43 0.00 72 1010.5
20260506222005 61 213 16.0 21.0 0.01 0.43 0.00 72 1010.5
20260506221900 61 206 13.0 21.0 0.01 0.43 0.00 72 1010.6
20260506221759 61 221 12.0 24.0 0.01 0.43 0.00 72 1010.5
20260506221703 61 212 11.0 24.0 0.01 0.43 0.00 72 1010.5
20260506221600 61 207 12.0 24.0 0.01 0.43 0.00 72 1010.6
20260506221501 61 207 14.0 24.0 0.01 0.43 0.00 71 1010.4
20260506221402 61 194 20.0 24.0 0.01 0.43 0.00 71 1010.4
20260506221300 61 189 13.0 24.0 0.01 0.43 0.00 71 1010.5
20260506221103 61 194 13.0 24.0 0.01 0.43 0.00 70 1010.4
20260506220859 61 201 17.0 24.0 0.01 0.43 0.00 70 1010.4
20260506220559 61 207 17.0 24.0 0.01 0.43 0.00 70 1010.3
20260506220359 61 223 21.0 25.0 0.01 0.43 0.00 70 1010.3
20260506220259 61 218 18.0 25.0 0.01 0.43 0.00 70 1010.3
20260506220204 61 185 20.0 25.0 0.01 0.43 0.00 70 1010.3
20260506220118 61 221 22.0 25.0 0.01 0.43 0.00 70 1010.4
20260506220006 61 202 15.0 25.0 0.01 0.43 0.00 70 1010.4
20260506215803 61 217 18.0 25.0 0.01 0.43 0.43 69 1010.4
20260506215700 61 215 20.0 25.0 0.01 0.43 0.43 69 1010.4
20260506215603 61 219 21.0 25.0 0.01 0.43 0.43 70 1010.4
20260506215400 61 180 14.0 22.0 0.01 0.43 0.43 70 1010.4
20260506215305 61 213 15.0 22.0 0.01 0.43 0.43 70 1010.4
20260506215202 61 222 14.0 22.0 0.01 0.43 0.43 70 1010.4
20260506215004 60 218 16.0 21.0 0.01 0.43 0.43 71 1010.4
20260506214902 60 208 10.0 21.0 0.01 0.43 0.43 71 1010.4
20260506214704 60 208 12.0 21.0 0.01 0.43 0.43 72 1010.4
20260506214602 60 192 17.0 21.0 0.01 0.43 0.43 72 1010.5
20260506214501 60 220 12.0 21.0 0.01 0.43 0.43 73 1010.5
20260506214403 60 213 17.0 21.0 0.01 0.43 0.43 73 1010.5
20260506214201 60 205 9.0 22.0 0.01 0.43 0.43 75 1010.5
20260506214103 60 181 14.0 22.0 0.01 0.43 0.43 75 1010.5
20260506214007 60 221 15.0 22.0 0.01 0.43 0.43 75 1010.5
20260506213901 60 213 14.0 22.0 0.01 0.43 0.43 76 1010.5
20260506213803 60 223 9.0 22.0 0.01 0.43 0.43 76 1010.5
20260506213703 60 205 10.0 22.0 0.01 0.43 0.43 76 1010.5
20260506213602 59 215 14.0 22.0 0.01 0.43 0.43 76 1010.4
20260506213505 60 212 18.0 19.0 0.01 0.43 0.43 76 1010.5
20260506213402 60 200 14.0 19.0 0.01 0.43 0.43 76 1010.5
20260506213301 60 213 12.0 19.0 0.01 0.43 0.43 77 1010.5
20260506213219 60 214 10.0 19.0 0.01 0.43 0.43 76 1010.5
20260506213103 60 214 10.0 19.0 0.01 0.43 0.43 76 1010.4
20260506213002 60 221 20.0 20.0 0.01 0.43 0.43 76 1010.4
20260506212903 60 212 9.0 22.0 0.01 0.43 0.43 76 1010.4
20260506212804 60 225 11.0 22.0 0.01 0.43 0.43 76 1010.4
20260506212701 60 220 12.0 22.0 0.01 0.43 0.43 75 1010.4
20260506212608 60 214 15.0 22.0 0.01 0.43 0.43 75 1010.4
20260506212504 60 218 14.0 22.0 0.00 0.42 0.42 75 1010.4
20260506212400 61 209 18.0 22.0 0.00 0.42 0.42 75 1010.5
20260506212307 61 208 8.0 22.0 0.00 0.42 0.42 75 1010.5
20260506212107 61 217 15.0 22.0 0.00 0.42 0.42 73 1010.3
20260506212005 61 221 14.0 22.0 0.00 0.42 0.42 73 1010.3
20260506211902 61 209 14.0 21.0 0.00 0.42 0.42 74 1010.4
20260506211800 61 221 9.0 23.0 0.00 0.42 0.42 73 1010.4
20260506211708 61 200 11.0 23.0 0.00 0.42 0.42 73 1010.4
20260506211603 61 183 17.0 23.0 0.00 0.42 0.42 73 1010.4
20260506211501 61 188 14.0 23.0 0.00 0.42 0.42 72 1010.4
20260506211403 61 238 13.0 23.0 0.00 0.42 0.42 72 1010.4
20260506211304 62 203 16.0 23.0 0.00 0.42 0.42 71 1010.4
20260506211200 62 194 17.0 23.0 0.00 0.42 0.42 71 1010.4
20260506211104 62 200 13.0 23.0 0.00 0.42 0.42 71 1010.4
20260506211003 62 211 16.0 23.0 0.00 0.42 0.42 71 1010.3
20260506210901 62 209 21.0 23.0 0.00 0.42 0.42 70 1010.3
20260506210703 62 203 12.0 23.0 0.00 0.42 0.42 70 1010.3
20260506210601 62 184 18.0 23.0 0.00 0.42 0.42 70 1010.3
20260506210504 62 187 13.0 23.0 0.00 0.42 0.42 70 1010.3
20260506210300 62 200 20.0 23.0 0.00 0.42 0.42 70 1010.2
20260506205904 62 184 18.0 20.0 0.00 0.42 0.42 72 1010.2
20260506205802 61 203 13.0 17.0 0.00 0.42 0.42 72 1010.3
20260506205701 61 174 13.0 18.0 0.00 0.42 0.42 73 1010.3
20260506205603 61 199 11.0 18.0 0.00 0.42 0.42 73 1010.3
20260506205503 61 204 13.0 17.0 0.00 0.42 0.42 74 1010.3
20260506205100 61 207 12.0 17.0 0.00 0.42 0.42 74 1010.3
20260506204903 61 192 6.0 17.0 0.00 0.42 0.42 74 1010.2
20260506204800 61 208 8.0 17.0 0.00 0.42 0.42 75 1010.3
20260506204703 61 178 10.0 14.0 0.00 0.42 0.42 75 1010.3
20260506204603 61 186 11.0 15.0 0.00 0.42 0.42 76 1010.2
20260506204500 61 180 6.0 15.0 0.00 0.42 0.42 75 1010.3
20260506204302 61 171 4.0 15.0 0.00 0.42 0.42 76 1010.3
20260506204200 61 185 9.0 15.0 0.00 0.42 0.42 76 1010.3
20260506204103 61 199 7.0 17.0 0.00 0.42 0.42 77 1010.3
20260506203900 61 188 13.0 17.0 0.00 0.42 0.42 76 1010.3
20260506203803 61 174 7.0 17.0 0.00 0.42 0.42 76 1010.4
20260506203703 61 166 9.0 17.0 0.00 0.42 0.42 77 1010.4
20260506203503 61 171 14.0 17.0 0.00 0.42 0.42 77 1010.3
20260506203403 61 165 7.0 17.0 0.00 0.42 0.42 77 1010.3
20260506203301 61 191 10.0 17.0 0.00 0.42 0.42 77 1010.3
20260506203206 61 188 15.0 17.0 0.00 0.42 0.42 78 1010.3
20260506203105 61 168 5.0 10.0 0.00 0.42 0.42 78 1010.3
20260506203003 61 170 4.0 9.0 0.00 0.42 0.42 79 1010.3
20260506202904 61 176 7.0 9.0 0.00 0.42 0.42 79 1010.3
20260506202803 61 174 8.0 10.0 0.00 0.42 0.42 79 1010.3
20260506202702 61 167 3.0 9.0 0.00 0.42 0.42 80 1010.3
20260506202608 60 162 3.0 8.0 0.00 0.42 0.42 80 1010.3
20260506202506 60 180 5.0 7.0 0.00 0.42 0.42 80 1010.3
20260506202402 60 204 4.0 7.0 0.00 0.42 0.42 80 1010.3
20260506202317 60 175 4.0 7.0 0.00 0.42 0.42 80 1010.3
20260506202205 60 178 6.0 7.0 0.00 0.42 0.42 80 1010.4
20260506201906 60 171 3.0 7.0 0.00 0.42 0.42 81 1010.4
20260506201802 60 164 4.0 7.0 0.00 0.42 0.42 81 1010.3
20260506201704 60 173 6.0 7.0 0.00 0.42 0.42 81 1010.3
20260506201604 60 140 4.0 7.0 0.00 0.42 0.42 81 1010.3
20260506201505 60 161 2.0 5.0 0.00 0.42 0.42 80 1010.3
20260506201201 60 161 3.0 5.0 0.00 0.42 0.42 80 1010.1
20260506201104 60 161 2.0 5.0 0.00 0.42 0.42 81 1010.1
20260506201004 60 142 2.0 5.0 0.00 0.42 0.42 81 1010.2
20260506200803 60 190 2.0 7.0 0.00 0.42 0.42 81 1010.2
20260506200706 60 169 4.0 7.0 0.00 0.42 0.42 81 1010.2
20260506200602 60 167 2.0 7.0 0.00 0.42 0.42 81 1010.2
20260506200506 60 199 3.0 7.0 0.00 0.42 0.42 81 1010.2
20260506200302 60 187 4.0 7.0 0.00 0.42 0.42 81 1010.2
20260506200209 60 180 2.0 7.0 0.00 0.42 0.42 81 1010.2
20260506200131 60 178 3.0 7.0 0.00 0.42 0.42 82 1010.1
20260506200008 60 159 3.0 7.0 0.00 0.42 0.42 82 1010.1
20260506195907 60 200 3.0 6.0 0.00 0.42 0.42 82 1010.1
20260506195801 60 177 2.0 6.0 0.00 0.42 0.42 82 1010.1
20260506195704 60 177 2.0 6.0 0.00 0.42 0.42 82 1010.1
20260506195605 60 177 2.0 6.0 0.00 0.42 0.42 82 1010.1
20260506195500 60 192 2.0 9.0 0.00 0.42 0.42 82 1010.1
20260506195309 60 196 3.0 9.0 0.00 0.42 0.42 82 1010.1
20260506194804 60 178 2.0 9.0 0.00 0.42 0.42 82 1010.0
20260506194705 60 167 3.0 9.0 0.00 0.42 0.42 82 1009.9
20260506194603 60 192 6.0 9.0 0.00 0.42 0.42 82 1010.0
20260506194502 60 159 6.0 8.0 0.00 0.42 0.42 82 1009.9
20260506194425 60 178 5.0 8.0 0.00 0.42 0.42 82 1009.9
20260506194303 60 148 4.0 8.0 0.00 0.42 0.42 82 1009.9
20260506194202 60 169 4.0 8.0 0.00 0.42 0.42 82 1009.9
20260506194101 60 182 4.0 7.0 0.00 0.42 0.42 82 1009.9
20260506194031 60 173 4.0 7.0 0.00 0.42 0.42 82 1009.9
20260506193905 60 189 4.0 8.0 0.00 0.42 0.42 83 1009.8
20260506193605 60 175 5.0 8.0 0.00 0.42 0.42 83 1009.8
20260506193505 60 177 3.0 8.0 0.00 0.42 0.42 83 1009.8
20260506193405 60 157 5.0 8.0 0.00 0.42 0.42 83 1009.8
20260506193302 60 160 2.0 8.0 0.00 0.42 0.42 83 1009.7
20260506193202 60 167 4.0 8.0 0.00 0.42 0.42 83 1009.7
20260506193003 60 177 6.0 9.0 0.00 0.42 0.42 83 1009.6
20260506192823 60 193 5.0 9.0 0.00 0.42 0.42 83 1009.6
20260506192702 60 179 4.0 9.0 0.00 0.42 0.42 83 1009.6
20260506192606 60 182 6.0 10.0 0.00 0.42 0.42 83 1009.6
20260506192518 60 185 4.0 10.0 0.00 0.42 0.42 83 1009.6
20260506192401 60 167 2.0 10.0 0.00 0.42 0.42 83 1009.6
20260506192305 60 192 3.0 10.0 0.00 0.42 0.42 83 1009.6
20260506192104 60 175 6.0 10.0 0.00 0.42 0.42 84 1009.6
20260506191912 60 164 3.0 11.0 0.00 0.42 0.42 84 1009.6
20260506191802 60 174 8.0 11.0 0.00 0.42 0.42 84 1009.5
20260506191703 60 161 4.0 11.0 0.00 0.42 0.42 84 1009.5
20260506191502 60 171 4.0 13.0 0.00 0.42 0.42 84 1009.5
20260506191406 60 153 5.0 13.0 0.00 0.42 0.42 84 1009.5
20260506191305 60 179 4.0 13.0 0.00 0.42 0.42 84 1009.5
20260506191101 60 191 9.0 13.0 0.00 0.42 0.42 84 1009.5
20260506191026 60 189 6.0 13.0 0.00 0.42 0.42 84 1009.5
20260506190921 60 184 8.0 13.0 0.00 0.42 0.42 84 1009.5
20260506190804 60 182 6.0 13.0 0.00 0.42 0.42 84 1009.5
20260506190602 60 163 7.0 13.0 0.00 0.42 0.42 84 1009.5
20260506190502 60 178 5.0 13.0 0.00 0.42 0.42 84 1009.5
20260506190405 60 159 5.0 13.0 0.00 0.42 0.42 84 1009.4
20260506190302 60 184 13.0 13.0 0.00 0.42 0.42 84 1009.4
20260506190205 60 184 13.0 13.0 0.00 0.42 0.42 84 1009.4
20260506190107 60 186 9.0 12.0 0.00 0.42 0.42 84 1009.4
20260506190005 60 180 3.0 12.0 0.00 0.42 0.42 84 1009.3
20260506185908 60 175 8.0 12.0 0.00 0.42 0.42 84 1009.4
20260506185723 60 187 4.0 10.0 0.00 0.42 0.42 84 1009.3
20260506185615 60 170 8.0 10.0 0.00 0.42 0.42 84 1009.3
20260506185403 60 177 4.0 9.0 0.00 0.42 0.42 83 1009.2
20260506185302 60 155 5.0 9.0 0.00 0.42 0.42 83 1009.2
20260506185203 60 175 4.0 7.0 0.00 0.42 0.42 83 1009.1
20260506185114 60 186 4.0 10.0 0.00 0.42 0.42 83 1009.1
20260506185003 60 178 6.0 10.0 0.00 0.42 0.42 83 1009.1
20260506184905 60 180 6.0 10.0 0.00 0.42 0.42 83 1009.1
20260506184804 60 180 3.0 10.0 0.00 0.42 0.42 83 1009.0
20260506184704 60 150 6.0 10.0 0.00 0.42 0.42 84 1009.0
20260506184608 60 165 4.0 10.0 0.00 0.42 0.42 83 1008.9
20260506184403 60 171 4.0 10.0 0.00 0.42 0.42 83 1009.0
20260506184307 60 157 3.0 11.0 0.00 0.42 0.42 83 1009.0
20260506184202 60 155 5.0 11.0 0.00 0.42 0.42 83 1009.0
20260506184102 60 152 10.0 11.0 0.00 0.42 0.42 83 1009.0
20260506183907 60 171 5.0 11.0 0.00 0.42 0.42 83 1009.0
20260506183801 60 163 2.0 11.0 0.00 0.42 0.42 83 1008.9
20260506183704 60 176 5.0 11.0 0.00 0.42 0.42 83 1008.9
20260506183606 60 176 8.0 11.0 0.00 0.42 0.42 83 1008.9
20260506183503 60 184 4.0 11.0 0.00 0.42 0.42 83 1008.9
20260506183401 60 186 5.0 11.0 0.00 0.42 0.42 83 1008.9
20260506183201 60 173 9.0 11.0 0.00 0.42 0.42 83 1008.9
20260506183101 60 194 6.0 11.0 0.00 0.42 0.42 83 1008.9
20260506183032 60 173 4.0 11.0 0.00 0.42 0.42 83 1008.9
20260506182801 60 185 2.0 10.0 0.00 0.42 0.42 83 1008.9
20260506182706 60 149 5.0 13.0 0.00 0.42 0.42 83 1008.9
20260506182502 60 171 7.0 13.0 0.00 0.42 0.42 83 1008.8
20260506182405 60 175 4.0 13.0 0.00 0.42 0.42 83 1008.8
20260506182307 60 162 3.0 13.0 0.01 0.42 0.42 83 1008.9
20260506182202 60 159 8.0 13.0 0.01 0.42 0.42 83 1008.9
20260506182106 60 158 4.0 13.0 0.01 0.42 0.42 83 1008.9
20260506182003 60 177 4.0 13.0 0.01 0.42 0.42 83 1008.9
20260506181919 60 177 7.0 13.0 0.01 0.42 0.42 83 1008.9
20260506181804 61 174 6.0 13.0 0.01 0.42 0.42 83 1008.9
20260506181704 61 157 6.0 11.0 0.01 0.42 0.42 83 1008.9
20260506181605 61 150 5.0 11.0 0.01 0.42 0.42 83 1008.9
20260506181505 61 170 6.0 11.0 0.01 0.42 0.42 83 1008.9
20260506181404 61 169 8.0 11.0 0.01 0.42 0.42 82 1008.9
20260506181303 61 199 6.0 11.0 0.01 0.42 0.42 82 1008.9
20260506181207 61 196 6.0 11.0 0.01 0.42 0.42 82 1008.9
20260506181102 61 191 10.0 11.0 0.01 0.42 0.42 82 1008.9
20260506181004 61 189 7.0 9.0 0.01 0.42 0.42 82 1009.0
20260506180905 61 178 6.0 11.0 0.01 0.42 0.42 82 1009.0
20260506180805 61 180 9.0 11.0 0.01 0.42 0.42 82 1008.9
20260506180702 61 181 7.0 11.0 0.01 0.42 0.42 82 1008.9
20260506180621 61 182 5.0 11.0 0.01 0.42 0.42 81 1008.9
20260506180524 61 183 7.0 12.0 0.01 0.42 0.42 81 1008.9
20260506180401 61 184 6.0 14.0 0.01 0.42 0.42 81 1008.8
20260506180301 61 176 6.0 14.0 0.01 0.42 0.42 81 1008.8
20260506180208 61 197 7.0 14.0 0.01 0.42 0.42 81 1008.8
20260506180120 61 192 7.0 14.0 0.01 0.42 0.42 81 1008.8
20260506180008 61 194 7.0 14.0 0.01 0.42 0.42 81 1008.9
20260506175929 61 185 9.0 14.0 0.01 0.43 0.42 80 1008.8
20260506175801 61 200 7.0 14.0 0.01 0.43 0.42 80 1008.8
20260506175705 61 188 8.0 14.0 0.01 0.43 0.42 80 1008.8
20260506175603 61 163 7.0 14.0 0.01 0.43 0.42 80 1008.8
20260506175200 61 186 10.0 16.0 0.01 0.43 0.42 79 1008.8
20260506175007 61 171 7.0 16.0 0.01 0.43 0.42 79 1008.8
20260506174901 61 186 12.0 16.0 0.01 0.43 0.42 79 1008.8
20260506174807 61 189 6.0 16.0 0.01 0.43 0.42 79 1008.8
20260506174719 61 180 6.0 16.0 0.01 0.43 0.42 79 1008.8
20260506174611 61 173 9.0 16.0 0.01 0.43 0.42 79 1008.8
20260506174503 61 188 11.0 16.0 0.01 0.43 0.42 79 1008.7
20260506174414 61 180 10.0 16.0 0.01 0.43 0.42 79 1008.7
20260506174203 61 178 8.0 17.0 0.01 0.43 0.42 79 1008.7
20260506174103 61 194 14.0 17.0 0.01 0.43 0.42 79 1008.7
20260506174002 61 191 6.0 18.0 0.01 0.43 0.42 79 1008.7
20260506173902 61 188 12.0 18.0 0.01 0.43 0.42 79 1008.7
20260506173803 61 200 11.0 18.0 0.01 0.43 0.42 79 1008.8
20260506173700 61 186 10.0 17.0 0.01 0.43 0.42 79 1008.7
20260506173603 61 180 10.0 19.0 0.01 0.43 0.42 79 1008.7
20260506173504 61 178 11.0 19.0 0.01 0.43 0.42 79 1008.8
20260506173402 61 190 12.0 19.0 0.01 0.43 0.42 79 1008.7
20260506173205 61 207 9.0 19.0 0.02 0.43 0.42 79 1008.7
20260506173101 61 190 16.0 19.0 0.02 0.43 0.42 79 1008.7
20260506173006 61 205 10.0 19.0 0.02 0.43 0.42 80 1008.7
20260506172800 61 189 16.0 19.0 0.02 0.43 0.42 79 1008.6
20260506172702 61 193 15.0 19.0 0.02 0.43 0.42 80 1008.6
20260506172604 61 199 15.0 20.0 0.02 0.43 0.42 80 1008.7
20260506172500 62 198 14.0 20.0 0.02 0.43 0.42 80 1008.6
20260506172402 61 206 13.0 20.0 0.01 0.42 0.41 80 1008.7
20260506172200 62 195 10.0 19.0 0.01 0.42 0.41 80 1008.7
20260506172005 62 191 13.0 16.0 0.01 0.42 0.41 81 1008.6
20260506171903 62 217 11.0 16.0 0.01 0.42 0.41 80 1008.6
20260506171802 62 202 7.0 16.0 0.01 0.42 0.41 80 1008.6
20260506171703 62 196 9.0 16.0 0.01 0.42 0.41 80 1008.6
20260506171600 62 222 13.0 16.0 0.01 0.42 0.41 80 1008.6
20260506171504 62 232 11.0 16.0 0.01 0.42 0.41 80 1008.6
20260506171403 62 204 12.0 16.0 0.01 0.42 0.41 81 1008.6
20260506171300 62 209 10.0 17.0 0.01 0.42 0.41 81 1008.6
20260506171202 62 221 12.0 17.0 0.01 0.42 0.41 81 1008.7
20260506171105 62 186 8.0 17.0 0.01 0.42 0.41 81 1008.7
20260506171001 62 232 11.0 17.0 0.01 0.42 0.41 81 1008.7
20260506170900 62 225 12.0 17.0 0.01 0.42 0.41 81 1008.7
20260506170816 62 209 8.0 17.0 0.01 0.42 0.41 81 1008.7
20260506170700 62 189 11.0 17.0 0.01 0.42 0.41 82 1008.7
20260506170600 62 212 10.0 17.0 0.01 0.42 0.41 82 1008.7
20260506170503 62 218 14.0 17.0 0.01 0.42 0.41 83 1008.7
20260506170400 62 229 15.0 17.0 0.01 0.42 0.41 83 1008.6
20260506170300 62 216 8.0 19.0 0.01 0.42 0.41 83 1008.6
20260506170203 62 214 13.0 19.0 0.01 0.42 0.41 83 1008.6
20260506170005 62 232 13.0 19.0 0.01 0.42 0.41 84 1008.5
20260506165800 62 226 8.0 15.0 0.01 0.42 0.41 84 1008.6
20260506165700 62 219 9.0 14.0 0.01 0.42 0.41 84 1008.6
20260506165605 62 241 6.0 14.0 0.01 0.42 0.41 84 1008.6
20260506165500 62 230 10.0 13.0 0.01 0.42 0.41 85 1008.6
20260506165400 62 225 7.0 13.0 0.01 0.42 0.41 85 1008.5
20260506165305 61 219 11.0 13.0 0.01 0.42 0.41 85 1008.5
20260506165201 62 223 11.0 13.0 0.01 0.42 0.41 84 1008.4
20260506165101 61 231 11.0 13.0 0.01 0.42 0.41 84 1008.4
20260506164900 61 223 12.0 13.0 0.01 0.42 0.41 85 1008.4
20260506164800 62 239 10.0 11.0 0.01 0.42 0.41 85 1008.4
20260506164712 62 241 7.0 13.0 0.01 0.42 0.41 85 1008.4
20260506164600 62 244 5.0 13.0 0.01 0.42 0.41 84 1008.4
20260506164404 62 226 6.0 16.0 0.01 0.42 0.41 84 1008.4
20260506164302 62 225 8.0 16.0 0.01 0.42 0.41 84 1008.3
20260506164200 62 221 7.0 19.0 0.01 0.42 0.41 83 1008.3
20260506164103 62 222 8.0 19.0 0.01 0.42 0.41 83 1008.3
20260506164003 62 231 9.0 19.0 0.01 0.42 0.41 83 1008.3
20260506163900 62 213 7.0 19.0 0.01 0.42 0.41 83 1008.3
20260506163803 62 234 10.0 19.0 0.01 0.42 0.41 83 1008.3
20260506163700 62 227 8.0 19.0 0.01 0.42 0.41 82 1008.3
20260506163300 63 228 14.0 19.0 0.00 0.41 0.40 81 1008.3
20260506163203 63 222 14.0 19.0 0.00 0.41 0.40 81 1008.3
20260506163103 63 226 12.0 19.0 0.00 0.41 0.40 81 1008.3
20260506163001 63 225 13.0 19.0 0.00 0.41 0.40 80 1008.3
20260506162904 63 227 14.0 19.0 0.00 0.41 0.40 80 1008.3
20260506162700 63 224 14.0 19.0 0.00 0.41 0.40 80 1008.2
20260506162605 63 236 12.0 19.0 0.00 0.41 0.40 80 1008.2
20260506162502 63 228 16.0 19.0 0.00 0.41 0.40 80 1008.3
20260506162401 63 218 14.0 16.0 0.00 0.41 0.40 80 1008.3
20260506162306 63 232 11.0 16.0 0.00 0.41 0.40 79 1008.3
20260506162200 63 233 9.0 16.0 0.00 0.41 0.40 79 1008.2
20260506162100 63 225 15.0 16.0 0.00 0.41 0.40 79 1008.2
20260506162003 63 224 10.0 16.0 0.00 0.41 0.40 79 1008.2
20260506161901 63 224 7.0 16.0 0.00 0.41 0.40 79 1008.2
20260506161802 63 238 15.0 17.0 0.00 0.41 0.40 79 1008.2
20260506161703 63 216 9.0 17.0 0.00 0.41 0.40 79 1008.2
20260506161500 63 198 9.0 17.0 0.00 0.41 0.40 78 1008.2
20260506161403 63 225 6.0 17.0 0.00 0.41 0.40 79 1008.2
20260506161301 63 236 8.0 17.0 0.00 0.41 0.40 79 1008.2
20260506161200 64 232 7.0 17.0 0.00 0.41 0.40 78 1008.2
20260506161102 63 232 5.0 17.0 0.00 0.41 0.40 78 1008.2
20260506161002 63 223 8.0 17.0 0.00 0.41 0.40 78 1008.2
20260506160901 63 237 12.0 17.0 0.00 0.41 0.40 78 1008.2
20260506160806 63 229 16.0 17.0 0.00 0.41 0.40 78 1008.2
20260506160700 63 222 7.0 11.0 0.00 0.41 0.40 79 1008.3
20260506160600 63 226 7.0 14.0 0.00 0.41 0.40 79 1008.2
20260506160503 63 249 6.0 14.0 0.00 0.41 0.40 79 1008.2
20260506160407 63 185 4.0 14.0 0.00 0.41 0.40 79 1008.2
20260506160300 63 239 8.0 14.0 0.00 0.41 0.40 79 1008.2
20260506160200 63 214 8.0 14.0 0.00 0.41 0.40 79 1008.2
20260506160123 63 225 7.0 15.0 0.00 0.41 0.40 79 1008.2
20260506160006 63 194 7.0 15.0 0.00 0.41 0.40 79 1008.2
20260506155901 63 236 9.0 15.0 0.00 0.41 0.40 78 1008.1
20260506155806 63 224 8.0 15.0 0.00 0.41 0.40 78 1008.1
20260506155600 63 196 7.0 15.0 0.00 0.41 0.40 78 1008.2
20260506155504 63 207 6.0 15.0 0.00 0.41 0.40 78 1008.2
20260506155400 63 210 7.0 15.0 0.00 0.41 0.40 78 1008.1
20260506155300 63 200 7.0 15.0 0.00 0.41 0.40 78 1008.2
20260506155203 63 188 7.0 17.0 0.00 0.41 0.40 78 1008.2
20260506155100 63 192 12.0 17.0 0.00 0.41 0.40 78 1008.2
20260506155007 63 196 11.0 17.0 0.00 0.41 0.40 78 1008.2
20260506154905 63 199 10.0 17.0 0.00 0.41 0.40 79 1008.1
20260506154800 63 232 10.0 17.0 0.00 0.41 0.40 78 1008.1
20260506154608 63 205 12.0 17.0 0.00 0.41 0.40 79 1008.2
20260506154400 63 196 15.0 19.0 0.01 0.41 0.40 78 1008.2
20260506154200 63 201 12.0 19.0 0.01 0.41 0.40 78 1008.2
20260506154100 63 224 11.0 19.0 0.01 0.41 0.40 78 1008.2
20260506154007 63 218 12.0 19.0 0.01 0.41 0.40 78 1008.2
20260506153900 63 198 15.0 19.0 0.01 0.41 0.40 78 1008.3
20260506153800 63 225 15.0 19.0 0.02 0.41 0.40 78 1008.2
20260506153703 63 194 11.0 22.0 0.02 0.41 0.40 78 1008.2
20260506153601 63 216 14.0 22.0 0.02 0.41 0.40 78 1008.2
20260506153501 63 215 14.0 22.0 0.02 0.41 0.40 78 1008.2
20260506153402 63 201 15.0 22.0 0.03 0.41 0.40 78 1008.2
20260506153300 63 217 12.0 22.0 0.03 0.41 0.40 78 1008.2
20260506153200 63 202 11.0 22.0 0.03 0.41 0.40 78 1008.2
20260506153103 63 221 17.0 22.0 0.03 0.41 0.40 79 1008.2
20260506153002 63 187 13.0 22.0 0.03 0.41 0.40 79 1008.1
20260506152900 62 211 13.0 21.0 0.03 0.41 0.40 79 1008.2
20260506152802 62 237 14.0 21.0 0.03 0.41 0.40 79 1008.1
20260506152700 62 225 21.0 22.0 0.03 0.41 0.40 79 1008.2
20260506152603 62 221 18.0 21.0 0.03 0.41 0.40 80 1008.2
20260506152202 62 217 18.0 21.0 0.03 0.41 0.40 80 1008.2
20260506152001 61 217 12.0 21.0 0.03 0.41 0.40 81 1008.3
20260506151903 61 183 15.0 22.0 0.03 0.41 0.40 81 1008.2
20260506151800 61 207 17.0 22.0 0.03 0.41 0.40 82 1008.2
20260506151700 61 215 17.0 22.0 0.03 0.41 0.40 82 1008.2
20260506151609 61 225 12.0 22.0 0.03 0.41 0.40 82 1008.2
20260506151501 61 225 16.0 22.0 0.03 0.41 0.40 82 1008.2
20260506151400 61 229 15.0 22.0 0.03 0.41 0.40 82 1008.2
20260506151303 61 230 14.0 22.0 0.03 0.41 0.40 82 1008.2
20260506151200 61 229 16.0 22.0 0.03 0.41 0.40 82 1008.3
20260506151100 61 210 15.0 18.0 0.03 0.41 0.40 83 1008.3
20260506151005 61 194 10.0 18.0 0.03 0.41 0.40 83 1008.3
20260506150900 61 217 13.0 18.0 0.03 0.41 0.40 84 1008.4
20260506150804 61 225 13.0 17.0 0.03 0.41 0.40 84 1008.3
20260506150705 61 194 7.0 17.0 0.03 0.41 0.40 84 1008.3
20260506150621 61 229 10.0 17.0 0.03 0.41 0.40 84 1008.3
20260506150402 60 231 14.0 17.0 0.03 0.41 0.40 84 1008.3
20260506150304 60 226 11.0 17.0 0.03 0.41 0.40 86 1008.3
20260506150201 60 216 17.0 17.0 0.03 0.41 0.40 86 1008.3
20260506150009 60 231 8.0 11.0 0.03 0.41 0.40 86 1008.2
20260506145900 60 238 8.0 11.0 0.03 0.41 0.40 86 1008.2
20260506145804 60 227 6.0 11.0 0.03 0.41 0.40 86 1008.2
20260506145701 60 244 4.0 13.0 0.03 0.41 0.40 86 1008.2
20260506145605 60 239 4.0 20.0 0.03 0.41 0.40 86 1008.3
20260506145506 60 243 7.0 20.0 0.03 0.41 0.40 86 1008.3
20260506145300 60 261 7.0 20.0 0.03 0.41 0.40 86 1008.5
20260506145203 60 231 8.0 20.0 0.03 0.41 0.40 86 1008.5
20260506145100 60 237 8.0 20.0 0.03 0.41 0.40 86 1008.5
20260506145001 60 232 8.0 22.0 0.03 0.41 0.40 85 1008.5
20260506144905 60 242 9.0 24.0 0.03 0.41 0.40 85 1008.5
20260506144801 60 233 7.0 24.0 0.03 0.41 0.40 85 1008.5
20260506144700 60 227 13.0 31.0 0.03 0.41 0.40 85 1008.5
20260506144614 60 213 12.0 31.0 0.03 0.41 0.40 85 1008.5
20260506144501 61 233 15.0 31.0 0.02 0.40 0.39 84 1008.6
20260506144400 61 239 14.0 31.0 0.02 0.40 0.39 84 1008.6
20260506144302 61 251 15.0 31.0 0.02 0.40 0.39 84 1008.6
20260506144200 61 239 12.0 31.0 0.02 0.40 0.39 83 1008.7
20260506144100 61 222 14.0 31.0 0.02 0.40 0.39 82 1008.7
20260506144005 61 247 13.0 31.0 0.02 0.40 0.39 82 1008.7
20260506143800 62 223 23.0 31.0 0.02 0.39 0.39 80 1008.5
20260506143703 63 211 23.0 30.0 0.02 0.39 0.39 79 1008.5
20260506143600 63 227 23.0 30.0 0.01 0.39 0.38 79 1008.5
20260506143404 64 271 11.0 30.0 0.00 0.38 0.37 78 1008.5
20260506143300 64 261 21.0 30.0 0.00 0.38 0.37 76 1008.5
20260506143201 65 218 25.0 30.0 0.00 0.38 0.37 77 1008.5
20260506143103 65 216 19.0 20.0 0.00 0.38 0.37 77 1008.4
20260506143002 65 252 12.0 20.0 0.00 0.38 0.37 77 1008.4
20260506142803 65 245 14.0 24.0 0.00 0.38 0.37 76 1008.4
20260506142700 66 265 17.0 24.0 0.00 0.38 0.37 76 1008.4
20260506142601 66 259 8.0 24.0 0.00 0.38 0.37 76 1008.4
20260506142503 66 256 13.0 24.0 0.00 0.38 0.37 75 1008.2
20260506142401 66 265 15.0 24.0 0.00 0.38 0.37 74 1008.2
20260506142300 67 273 9.0 24.0 0.00 0.38 0.37 74 1008.1
20260506142204 67 279 12.0 24.0 0.00 0.38 0.37 72 1008.1
20260506142101 68 252 13.0 24.0 0.00 0.38 0.37 72 1008.0
20260506142001 68 261 14.0 24.0 0.00 0.38 0.37 70 1007.8
20260506141904 69 281 20.0 24.0 0.00 0.38 0.37 69 1007.9
20260506141800 70 282 20.0 24.0 0.00 0.38 0.37 67 1007.8
20260506141700 70 287 19.0 19.0 0.00 0.38 0.37 67 1007.8
20260506141603 70 272 6.0 10.0 0.00 0.38 0.37 65 1007.8
20260506141503 70 246 6.0 10.0 0.00 0.38 0.37 66 1007.7
20260506141303 71 291 6.0 10.0 0.00 0.38 0.37 67 1007.7
20260506141159 71 284 5.0 10.0 0.00 0.38 0.37 68 1007.7
20260506141101 71 281 8.0 10.0 0.00 0.38 0.37 67 1007.7
20260506141010 71 277 6.0 10.0 0.00 0.38 0.37 66 1007.7
20260506140700 71 269 6.0 8.0 0.00 0.38 0.37 65 1007.8
20260506140502 71 271 3.0 7.0 0.00 0.38 0.37 65 1007.8
20260506140305 72 286 7.0 7.0 0.00 0.38 0.37 64 1007.8
20260506140159 72 284 3.0 7.0 0.00 0.38 0.37 63 1007.8
20260506140132 72 292 6.0 7.0 0.00 0.38 0.37 63 1007.8
20260506135803 72 194 3.0 8.0 0.00 0.38 0.37 63 1007.8
20260506135602 72 185 7.0 8.0 0.00 0.38 0.37 63 1007.8
20260506135504 72 178 4.0 8.0 0.00 0.38 0.37 62 1007.8
20260506135404 72 163 3.0 8.0 0.00 0.38 0.37 61 1007.8
20260506135306 72 161 1.0 8.0 0.00 0.38 0.37 61 1007.8
20260506135105 72 146 3.0 8.0 0.00 0.38 0.37 63 1007.8
20260506135002 72 184 4.0 8.0 0.00 0.38 0.37 62 1007.8
20260506134859 72 160 4.0 10.0 0.00 0.38 0.37 60 1007.8
20260506134600 72 150 4.0 10.0 0.00 0.38 0.37 61 1007.9
20260506134526 72 138 8.0 10.0 0.00 0.38 0.37 61 1007.9
20260506134259 72 163 7.0 10.0 0.00 0.38 0.37 60 1007.9
20260506134004 72 188 8.0 11.0 0.00 0.38 0.37 60 1007.9
20260506133906 72 170 6.0 11.0 0.00 0.38 0.37 60 1007.9
20260506133801 72 187 8.0 11.0 0.00 0.38 0.37 61 1007.9
20260506133609 73 176 2.0 11.0 0.00 0.38 0.37 60 1007.9
20260506133516 73 176 5.0 11.0 0.00 0.38 0.37 58 1007.8
20260506133359 73 187 5.0 12.0 0.00 0.38 0.37 60 1007.9
20260506133303 73 179 7.0 12.0 0.00 0.38 0.37 62 1007.9
20260506133200 73 139 3.0 12.0 0.00 0.38 0.37 61 1007.9
20260506133100 73 169 9.0 12.0 0.00 0.38 0.37 60 1007.9
20260506133004 73 201 4.0 12.0 0.00 0.38 0.37 62 1007.9
20260506132859 73 194 5.0 12.0 0.00 0.38 0.37 63 1007.9
20260506132600 73 165 6.0 12.0 0.00 0.38 0.37 62 1008.0
20260506132500 73 135 5.0 12.0 0.00 0.38 0.37 63 1008.0
20260506132408 72 159 4.0 11.0 0.00 0.38 0.37 63 1008.0
20260506132300 72 185 4.0 11.0 0.00 0.38 0.37 62 1008.0
20260506132201 72 142 7.0 11.0 0.00 0.38 0.37 63 1008.0
20260506132103 72 162 5.0 11.0 0.00 0.38 0.37 62 1008.0
20260506132001 72 200 3.0 11.0 0.00 0.38 0.37 61 1008.0
20260506131901 73 161 8.0 11.0 0.00 0.38 0.37 63 1008.1
20260506131700 73 170 2.0 15.0 0.00 0.38 0.37 63 1008.0
20260506131600 73 226 3.0 15.0 0.00 0.38 0.37 64 1008.1
20260506131504 72 164 3.0 15.0 0.00 0.38 0.37 63 1008.1
20260506131400 72 176 5.0 15.0 0.00 0.38 0.37 62 1008.1
20260506131202 72 110 7.0 15.0 0.00 0.38 0.37 66 1008.1
20260506131059 72 162 6.0 15.0 0.00 0.38 0.37 64 1008.1
20260506131002 72 161 2.0 15.0 0.00 0.38 0.37 63 1008.2
20260506130905 72 163 3.0 15.0 0.00 0.38 0.37 61 1008.2
20260506130801 72 175 9.0 15.0 0.00 0.38 0.37 61 1008.2
20260506130700 73 184 15.0 15.0 0.00 0.38 0.37 61 1008.2
20260506130604 73 165 7.0 14.0 0.00 0.38 0.37 63 1008.2
20260506130501 73 157 8.0 14.0 0.00 0.38 0.37 63 1008.2
20260506130359 73 119 8.0 14.0 0.00 0.38 0.37 61 1008.2
20260506130303 73 123 5.0 14.0 0.00 0.38 0.37 63 1008.2
20260506130200 73 165 3.0 14.0 0.00 0.38 0.37 65 1008.1
20260506130006 73 128 10.0 14.0 0.00 0.38 0.37 66 1008.2
20260506125900 73 134 10.0 14.0 0.00 0.38 0.37 67 1008.2
20260506125759 72 161 10.0 14.0 0.00 0.38 0.37 66 1008.2
20260506125702 72 134 10.0 14.0 0.00 0.38 0.37 65 1008.2
20260506125600 72 153 5.0 12.0 0.00 0.38 0.37 66 1008.2
20260506125504 72 189 4.0 12.0 0.00 0.38 0.37 65 1008.2
20260506125402 72 175 4.0 15.0 0.00 0.38 0.37 64 1008.3
20260506125300 72 196 6.0 15.0 0.00 0.38 0.37 63 1008.3
20260506125159 72 170 8.0 15.0 0.00 0.38 0.37 63 1008.3
20260506125001 72 173 8.0 15.0 0.00 0.38 0.37 65 1008.3
20260506124859 72 161 3.0 15.0 0.00 0.38 0.37 69 1008.2
20260506124802 72 121 10.0 15.0 0.00 0.38 0.37 68 1008.2
20260506124700 71 152 6.0 15.0 0.00 0.38 0.37 66 1008.2
20260506124301 71 153 4.0 14.0 0.00 0.38 0.37 69 1008.3
20260506124203 70 154 8.0 14.0 0.00 0.38 0.37 67 1008.2
20260506124100 70 157 3.0 14.0 0.00 0.38 0.37 67 1008.3
20260506124001 70 157 6.0 14.0 0.00 0.38 0.37 68 1008.3
20260506123902 70 142 4.0 15.0 0.00 0.38 0.37 68 1008.3
20260506123800 70 133 10.0 15.0 0.00 0.38 0.37 69 1008.4
20260506123700 70 136 12.0 15.0 0.00 0.38 0.37 68 1008.3
20260506123605 70 159 7.0 15.0 0.00 0.38 0.37 67 1008.3
20260506123500 70 138 9.0 15.0 0.00 0.38 0.37 66 1008.3
20260506123302 70 155 6.0 15.0 0.00 0.38 0.37 67 1008.3
20260506123200 70 159 8.0 15.0 0.00 0.38 0.37 67 1008.3
20260506123059 70 147 8.0 15.0 0.00 0.38 0.37 68 1008.3
20260506123005 70 136 14.0 15.0 0.00 0.38 0.37 69 1008.3
20260506122900 70 129 11.0 14.0 0.00 0.38 0.37 69 1008.3
20260506122800 70 142 6.0 15.0 0.00 0.38 0.37 68 1008.3
20260506122703 70 163 4.0 15.0 0.00 0.38 0.37 68 1008.3
20260506122402 70 154 5.0 15.0 0.00 0.38 0.37 67 1008.3
20260506122306 70 138 9.0 15.0 0.00 0.38 0.37 67 1008.3
20260506122103 70 130 10.0 15.0 0.00 0.38 0.37 66 1008.3
20260506122002 70 136 11.0 15.0 0.00 0.38 0.37 66 1008.4
20260506121700 70 144 10.0 15.0 0.00 0.38 0.37 67 1008.3
20260506121611 70 163 7.0 15.0 0.00 0.38 0.37 66 1008.3
20260506121509 70 133 10.0 15.0 0.00 0.38 0.37 66 1008.3
20260506121203 70 144 5.0 12.0 0.00 0.38 0.37 67 1008.3
20260506121102 70 164 7.0 12.0 0.00 0.38 0.37 67 1008.4
20260506120902 70 165 3.0 12.0 0.00 0.38 0.37 66 1008.3
20260506120804 70 195 10.0 12.0 0.00 0.38 0.37 68 1008.3
20260506120700 70 187 9.0 10.0 0.00 0.38 0.37 67 1008.3
20260506120505 70 147 5.0 10.0 0.00 0.38 0.37 68 1008.4
20260506120400 70 158 5.0 10.0 0.00 0.38 0.37 67 1008.4
20260506120300 70 178 6.0 10.0 0.00 0.38 0.37 67 1008.4
20260506120204 70 182 9.0 10.0 0.00 0.38 0.37 69 1008.4
20260506120130 70 158 4.0 12.0 0.00 0.38 0.37 69 1008.5
20260506115904 70 136 5.0 12.0 0.00 0.39 0.37 69 1008.5
20260506115800 70 167 5.0 12.0 0.00 0.39 0.37 69 1008.5
20260506115700 70 165 3.0 12.0 0.00 0.39 0.37 69 1008.4
20260506115359 69 198 4.0 12.0 0.00 0.39 0.37 67 1008.5
20260506115306 69 167 4.0 12.0 0.00 0.39 0.37 68 1008.6
20260506115200 69 176 8.0 12.0 0.00 0.39 0.37 69 1008.6
20260506115059 69 175 7.0 12.0 0.01 0.39 0.37 68 1008.6
20260506115005 69 171 8.0 12.0 0.01 0.39 0.37 68 1008.6
20260506114900 69 159 3.0 11.0 0.01 0.39 0.37 68 1008.7
20260506114759 69 164 7.0 11.0 0.01 0.39 0.37 67 1008.7
20260506114702 69 164 5.0 11.0 0.01 0.39 0.37 68 1008.6
20260506114600 69 171 7.0 10.0 0.01 0.39 0.37 70 1008.6
20260506114501 69 165 6.0 10.0 0.01 0.39 0.37 70 1008.6
20260506114402 69 160 5.0 10.0 0.01 0.39 0.37 69 1008.6
20260506114259 69 164 7.0 10.0 0.01 0.39 0.37 70 1008.6
20260506114200 69 160 6.0 10.0 0.01 0.39 0.37 70 1008.6
20260506114000 69 163 3.0 14.0 0.01 0.39 0.37 71 1008.6
20260506113859 69 152 7.0 14.0 0.01 0.39 0.37 70 1008.6
20260506113802 69 157 4.0 14.0 0.01 0.39 0.37 70 1008.6
20260506113701 69 157 2.0 14.0 0.01 0.39 0.37 70 1008.6
20260506113559 69 169 4.0 14.0 0.01 0.39 0.37 70 1008.6
20260506113502 69 165 4.0 14.0 0.01 0.39 0.37 70 1008.6
20260506113400 69 162 4.0 19.0 0.01 0.39 0.37 70 1008.6
20260506113259 69 159 5.0 19.0 0.01 0.39 0.37 70 1008.6
20260506113117 69 178 5.0 19.0 0.01 0.39 0.37 70 1008.6
20260506113009 69 191 10.0 20.0 0.01 0.39 0.37 70 1008.6
20260506112907 69 206 9.0 20.0 0.01 0.39 0.37 70 1008.6
20260506112817 69 165 7.0 20.0 0.01 0.39 0.37 70 1008.5
20260506112700 69 186 15.0 20.0 0.01 0.39 0.37 69 1008.6
20260506112601 69 179 9.0 20.0 0.01 0.39 0.37 68 1008.6
20260506112504 69 190 11.0 20.0 0.01 0.39 0.37 69 1008.5
20260506112400 69 217 14.0 20.0 0.01 0.39 0.37 70 1008.6
20260506112300 69 193 10.0 20.0 0.01 0.39 0.37 69 1008.5
20260506112220 69 182 7.0 20.0 0.01 0.39 0.37 70 1008.5
20260506112101 69 194 14.0 20.0 0.01 0.39 0.37 70 1008.6
20260506112002 69 174 13.0 20.0 0.01 0.39 0.37 70 1008.5
20260506111801 69 200 14.0 20.0 0.01 0.39 0.37 70 1008.6
20260506111603 69 188 4.0 20.0 0.01 0.39 0.37 70 1008.6
20260506111500 69 192 13.0 20.0 0.01 0.39 0.37 70 1008.6
20260506111400 69 172 9.0 20.0 0.01 0.39 0.37 70 1008.6
20260506111200 69 191 12.0 22.0 0.01 0.39 0.37 71 1008.6
20260506111100 69 182 9.0 22.0 0.01 0.39 0.37 71 1008.6
20260506111004 69 202 13.0 22.0 0.01 0.39 0.37 72 1008.6
20260506110900 68 191 10.0 22.0 0.01 0.39 0.37 70 1008.6
20260506110800 68 167 9.0 22.0 0.01 0.39 0.37 71 1008.6
20260506110600 68 197 18.0 22.0 0.01 0.39 0.37 71 1008.7
20260506110502 68 170 16.0 22.0 0.01 0.39 0.37 70 1008.7
20260506110403 68 180 16.0 22.0 0.01 0.39 0.37 69 1008.7
20260506110300 68 192 15.0 22.0 0.01 0.39 0.37 72 1008.7
20260506110104 68 180 20.0 22.0 0.01 0.39 0.37 72 1008.8
20260506110005 68 171 20.0 21.0 0.01 0.39 0.37 72 1008.8
20260506105900 68 193 16.0 21.0 0.01 0.39 0.37 73 1008.9
20260506105805 68 185 8.0 21.0 0.01 0.39 0.37 71 1008.9
20260506105701 68 176 12.0 21.0 0.01 0.39 0.37 73 1008.9
20260506105559 68 165 14.0 21.0 0.01 0.39 0.37 73 1008.9
20260506105505 68 184 10.0 21.0 0.01 0.39 0.37 72 1008.9
20260506105304 68 184 18.0 18.0 0.01 0.39 0.37 72 1008.9
20260506105100 68 193 19.0 27.0 0.00 0.39 0.36 72 1008.8
20260506105000 68 168 11.0 27.0 0.00 0.39 0.36 72 1008.8
20260506104802 68 169 12.0 27.0 0.00 0.39 0.36 72 1008.9
20260506104700 68 176 9.0 27.0 0.00 0.39 0.36 72 1008.9
20260506104606 68 198 14.0 27.0 0.00 0.39 0.36 72 1008.9
20260506104503 68 201 10.0 27.0 0.00 0.39 0.36 72 1008.9
20260506104401 68 198 11.0 27.0 0.00 0.39 0.36 73 1008.9
20260506104302 68 171 15.0 27.0 0.00 0.39 0.36 73 1008.9
20260506104201 68 198 17.0 27.0 0.00 0.39 0.36 74 1008.9
20260506104100 68 152 13.0 24.0 0.00 0.39 0.36 74 1008.9
20260506104006 68 169 13.0 24.0 0.00 0.39 0.36 73 1008.9
20260506103801 68 173 11.0 24.0 0.00 0.39 0.36 72 1008.9
20260506103705 68 163 8.0 24.0 0.00 0.39 0.36 72 1008.9
20260506103600 68 194 7.0 24.0 0.00 0.39 0.36 72 1008.9
20260506103501 68 191 15.0 24.0 0.00 0.39 0.36 72 1008.9
20260506103403 68 164 10.0 24.0 0.00 0.39 0.36 73 1009.0
20260506103259 68 158 12.0 24.0 0.00 0.39 0.36 72 1008.9
20260506103200 68 204 14.0 21.0 0.00 0.39 0.36 73 1008.9
20260506103102 68 176 14.0 21.0 0.00 0.39 0.36 73 1008.9
20260506103003 68 174 11.0 21.0 0.00 0.39 0.36 72 1008.9
20260506102903 68 185 21.0 21.0 0.00 0.39 0.36 72 1009.0
20260506102803 68 173 15.0 21.0 0.00 0.39 0.36 71 1009.0
20260506102701 68 167 20.0 20.0 0.00 0.39 0.36 73 1009.1
20260506102600 68 192 11.0 20.0 0.00 0.39 0.36 73 1009.0
20260506102504 68 175 15.0 18.0 0.00 0.39 0.36 73 1009.0
20260506102401 68 181 10.0 16.0 0.00 0.39 0.36 73 1009.1
20260506102300 68 165 6.0 16.0 0.00 0.39 0.36 74 1009.1
20260506102203 68 178 9.0 16.0 0.00 0.39 0.36 73 1009.1
20260506102107 68 155 9.0 14.0 0.00 0.39 0.36 73 1009.1
20260506102001 68 184 13.0 14.0 0.00 0.39 0.36 73 1009.1
20260506101902 68 186 10.0 14.0 0.00 0.39 0.36 73 1009.2
20260506101807 69 174 8.0 12.0 0.00 0.39 0.36 73 1009.1
20260506101708 69 157 5.0 15.0 0.00 0.39 0.36 74 1009.1
20260506101301 68 156 7.0 15.0 0.00 0.39 0.36 74 1009.1
20260506101201 68 159 5.0 15.0 0.00 0.39 0.36 76 1009.1
20260506101103 68 172 6.0 15.0 0.00 0.39 0.36 74 1009.1
20260506101000 68 179 8.0 15.0 0.00 0.39 0.36 74 1009.2
20260506100900 68 160 4.0 15.0 0.00 0.39 0.36 74 1009.1
20260506100803 68 178 13.0 15.0 0.00 0.39 0.36 73 1009.1
20260506100700 68 163 10.0 21.0 0.00 0.39 0.36 74 1009.1
20260506100600 68 185 16.0 21.0 0.00 0.39 0.36 74 1009.2
20260506100503 68 166 10.0 21.0 0.00 0.39 0.36 74 1009.1
20260506100400 68 179 7.0 21.0 0.00 0.39 0.36 73 1009.0
20260506100203 68 161 4.0 21.0 0.00 0.39 0.36 74 1009.0
20260506100131 68 168 8.0 21.0 0.00 0.39 0.36 73 1009.1
20260506095801 68 178 11.0 21.0 0.00 0.39 0.36 73 1009.2
20260506095701 68 165 8.0 17.0 0.00 0.39 0.36 73 1009.2
20260506095607 68 167 14.0 17.0 0.00 0.39 0.36 73 1009.2
20260506095501 68 178 11.0 17.0 0.00 0.39 0.36 73 1009.2
20260506095400 68 159 9.0 17.0 0.00 0.39 0.36 74 1009.2
20260506095306 68 173 9.0 17.0 0.00 0.39 0.36 74 1009.2
20260506095200 68 187 9.0 17.0 0.00 0.39 0.36 73 1009.3
20260506095101 68 203 16.0 17.0 0.00 0.39 0.36 74 1009.2
20260506095003 68 217 10.0 14.0 0.00 0.39 0.36 74 1009.2
20260506094801 68 177 6.0 14.0 0.00 0.39 0.36 76 1009.3
20260506094703 68 167 6.0 14.0 0.00 0.39 0.36 76 1009.2
20260506094600 68 179 7.0 14.0 0.00 0.39 0.36 75 1009.2
20260506094500 68 190 10.0 13.0 0.00 0.39 0.36 74 1009.2
20260506094402 68 186 7.0 13.0 0.00 0.39 0.36 75 1009.2
20260506094259 68 160 6.0 13.0 0.00 0.39 0.36 74 1009.2
20260506094102 68 183 12.0 12.0 0.00 0.39 0.36 74 1009.2
20260506093900 68 198 5.0 12.0 0.00 0.39 0.36 74 1009.2
20260506093503 68 176 8.0 15.0 0.00 0.39 0.36 73 1009.1
20260506093001 68 161 8.0 15.0 0.00 0.39 0.36 76 1009.1
20260506092903 68 142 4.0 15.0 0.00 0.39 0.36 75 1009.1
20260506092759 68 137 9.0 15.0 0.00 0.39 0.36 75 1009.1
20260506092603 68 136 13.0 17.0 0.00 0.39 0.36 76 1009.1
20260506092501 68 182 7.0 17.0 0.00 0.39 0.36 76 1009.2
20260506092400 68 142 6.0 17.0 0.00 0.39 0.36 75 1009.1
20260506092200 68 194 6.0 17.0 0.00 0.39 0.36 76 1009.1
20260506092100 68 164 4.0 17.0 0.00 0.39 0.36 76 1009.1
20260506092010 68 166 3.0 17.0 0.00 0.39 0.36 74 1009.1
20260506091900 68 144 4.0 17.0 0.00 0.39 0.36 75 1009.2
20260506091800 68 156 4.0 17.0 0.00 0.39 0.36 76 1009.2
20260506091703 68 184 7.0 17.0 0.00 0.39 0.36 76 1009.2
20260506091600 68 165 7.0 15.0 0.00 0.39 0.36 76 1009.2
20260506091500 67 157 5.0 13.0 0.00 0.39 0.36 76 1009.2
20260506091402 67 178 8.0 10.0 0.00 0.39 0.36 77 1009.2
20260506091300 67 179 4.0 11.0 0.00 0.39 0.36 76 1009.2
20260506091200 67 165 4.0 11.0 0.00 0.39 0.36 77 1009.1
20260506091104 67 147 5.0 11.0 0.00 0.39 0.36 77 1009.1
20260506091000 67 164 4.0 11.0 0.00 0.39 0.36 77 1009.1
20260506090900 67 155 5.0 13.0 0.00 0.39 0.36 78 1009.1
20260506090803 67 163 5.0 13.0 0.00 0.39 0.36 78 1009.1
20260506090708 67 153 4.0 13.0 0.00 0.39 0.36 77 1009.1
20260506090559 67 163 3.0 13.0 0.00 0.39 0.36 77 1009.1
20260506090503 67 176 4.0 13.0 0.00 0.39 0.36 78 1009.1
20260506090400 67 133 7.0 13.0 0.00 0.39 0.36 77 1009.1
20260506090300 67 132 6.0 13.0 0.00 0.39 0.36 78 1009.1
20260506090202 67 132 10.0 13.0 0.00 0.39 0.36 78 1009.1
20260506090100 67 173 6.0 13.0 0.00 0.39 0.36 77 1009.1
20260506085907 67 132 12.0 14.0 0.00 0.39 0.36 78 1009.1
20260506085701 67 154 8.0 12.0 0.00 0.39 0.36 78 1009.1
20260506085603 67 116 9.0 11.0 0.00 0.39 0.36 78 1009.1
20260506085500 67 128 7.0 10.0 0.00 0.39 0.36 78 1009.1
20260506085400 67 140 10.0 11.0 0.00 0.39 0.36 78 1009.1
20260506085306 67 93 9.0 10.0 0.00 0.39 0.36 77 1009.1
20260506085200 67 184 2.0 9.0 0.00 0.39 0.36 78 1009.1
20260506084901 67 170 3.0 12.0 0.00 0.39 0.36 79 1009.1
20260506084800 67 118 8.0 17.0 0.00 0.39 0.36 80 1009.1
20260506084705 67 124 9.0 17.0 0.00 0.39 0.36 81 1009.1
20260506084600 67 126 7.0 17.0 0.00 0.39 0.36 81 1009.1
20260506084500 67 117 8.0 17.0 0.00 0.39 0.36 80 1009.0
20260506084402 66 130 9.0 17.0 0.00 0.39 0.36 80 1009.0
20260506084300 66 110 9.0 17.0 0.00 0.39 0.36 81 1009.0
20260506084200 66 138 6.0 17.0 0.00 0.39 0.36 81 1009.1
20260506084103 66 127 8.0 17.0 0.00 0.39 0.36 82 1009.0
20260506084009 66 136 9.0 17.0 0.00 0.39 0.36 82 1009.0
20260506083900 66 130 9.0 17.0 0.00 0.39 0.36 82 1009.0
20260506083659 66 132 3.0 12.0 0.00 0.39 0.36 83 1009.1
20260506083558 65 130 12.0 12.0 0.00 0.39 0.36 83 1009.1
20260506083503 65 103 5.0 12.0 0.00 0.39 0.36 83 1009.2
20260506083403 65 90 7.0 12.0 0.00 0.39 0.36 83 1009.2
20260506083301 65 109 10.0 12.0 0.00 0.39 0.36 83 1009.2
20260506083202 65 123 9.0 12.0 0.00 0.39 0.36 83 1009.2
20260506083100 65 122 5.0 12.0 0.00 0.39 0.36 84 1009.2
20260506083001 65 112 7.0 12.0 0.00 0.39 0.36 85 1009.2
20260506082903 65 110 4.0 12.0 0.00 0.39 0.36 84 1009.2
20260506082800 65 122 7.0 12.0 0.00 0.39 0.36 84 1009.2
20260506082700 65 126 4.0 12.0 0.00 0.39 0.36 85 1009.2
20260506082603 65 118 8.0 12.0 0.00 0.39 0.36 86 1009.2
20260506082502 65 54 8.0 12.0 0.00 0.39 0.36 87 1009.2
20260506082403 65 58 11.0 12.0 0.00 0.39 0.36 87 1009.1
20260506082305 65 68 7.0 12.0 0.00 0.39 0.36 87 1009.1
20260506082200 65 84 6.0 12.0 0.00 0.39 0.36 87 1009.1
20260506082100 65 79 6.0 12.0 0.00 0.39 0.36 87 1009.2
20260506081900 64 82 3.0 12.0 0.00 0.39 0.36 87 1009.1
20260506081702 64 82 7.0 12.0 0.00 0.39 0.36 87 1009.1
20260506081600 64 101 7.0 12.0 0.00 0.39 0.36 87 1009.1
20260506081459 64 82 8.0 13.0 0.00 0.39 0.36 87 1009.2
20260506081403 64 89 6.0 13.0 0.00 0.39 0.36 87 1009.2
20260506081300 64 90 8.0 13.0 0.00 0.39 0.36 87 1009.2
20260506081103 64 129 7.0 13.0 0.00 0.39 0.36 88 1009.1
20260506081000 64 97 3.0 13.0 0.00 0.39 0.36 88 1009.1
20260506080901 64 98 8.0 13.0 0.00 0.39 0.36 88 1009.2
20260506080803 64 94 11.0 13.0 0.00 0.39 0.36 88 1009.2
20260506080701 64 113 9.0 13.0 0.00 0.39 0.36 89 1009.2
20260506080600 64 121 10.0 13.0 0.00 0.39 0.36 89 1009.2
20260506080503 64 99 9.0 13.0 0.00 0.39 0.36 89 1009.2
20260506080400 64 90 9.0 13.0 0.00 0.39 0.36 90 1009.2
20260506080303 63 96 9.0 13.0 0.00 0.39 0.36 90 1009.2
20260506073503 60 102 8.0 9.0 0.00 0.39 0.36 92 1009.2
20260506073400 60 84 5.0 9.0 0.00 0.39 0.36 92 1009.2
20260506073302 60 105 5.0 9.0 0.00 0.39 0.36 92 1009.2
20260506073201 60 109 3.0 9.0 0.00 0.39 0.36 92 1009.3
20260506073100 60 97 7.0 9.0 0.00 0.39 0.36 93 1009.2
20260506073003 60 122 4.0 9.0 0.00 0.39 0.36 93 1009.3
20260506072904 60 107 5.0 8.0 0.00 0.39 0.36 93 1009.3
20260506072800 60 95 6.0 8.0 0.00 0.39 0.36 93 1009.3
20260506072703 60 109 4.0 8.0 0.00 0.39 0.36 93 1009.3
20260506072402 59 82 3.0 9.0 0.00 0.39 0.36 93 1009.3
20260506072305 59 122 3.0 9.0 0.00 0.39 0.36 93 1009.3
20260506072200 59 97 5.0 9.0 0.00 0.39 0.36 93 1009.3
20260506072102 59 116 4.0 9.0 0.00 0.39 0.36 93 1009.2
20260506071801 59 107 4.0 9.0 0.00 0.39 0.36 93 1009.3
20260506071601 59 128 5.0 10.0 0.00 0.39 0.36 93 1009.4
20260506071502 59 118 5.0 11.0 0.00 0.39 0.36 93 1009.4
20260506071406 59 116 7.0 11.0 0.00 0.39 0.36 94 1009.4
20260506071301 59 134 6.0 11.0 0.00 0.39 0.36 94 1009.5
20260506071202 59 138 8.0 11.0 0.00 0.39 0.36 94 1009.3
20260506071103 59 138 6.0 11.0 0.00 0.39 0.36 94 1009.3
20260506071001 59 119 5.0 11.0 0.00 0.39 0.36 94 1009.2
20260506070903 59 122 7.0 11.0 0.00 0.39 0.36 94 1009.3
20260506070804 59 119 7.0 11.0 0.00 0.39 0.36 94 1009.3
20260506070659 59 138 7.0 11.0 0.00 0.39 0.36 95 1009.3
20260506070603 59 128 8.0 11.0 0.00 0.39 0.36 95 1009.3
20260506070400 59 115 9.0 11.0 0.00 0.39 0.36 95 1009.3
20260506070302 59 132 10.0 11.0 0.00 0.39 0.36 95 1009.4
20260506070202 59 136 7.0 12.0 0.00 0.39 0.36 95 1009.4
20260506062500 58 131 3.0 9.0 0.00 0.70 0.36 96 1009.7
20260506062400 58 113 5.0 9.0 0.00 0.70 0.36 96 1009.6
20260506062306 58 119 4.0 9.0 0.00 0.70 0.36 96 1009.6
20260506062200 58 101 3.0 9.0 0.00 0.70 0.36 96 1009.7
20260506062100 58 136 5.0 9.0 0.00 0.70 0.36 96 1009.7
20260506062005 58 146 3.0 9.0 0.00 0.70 0.36 96 1009.7
20260506061902 58 141 4.0 9.0 0.00 0.70 0.36 96 1009.7
20260506061800 58 157 5.0 9.0 0.00 0.70 0.36 96 1009.7
20260506061705 58 143 4.0 9.0 0.00 0.70 0.36 96 1009.7
20260506061600 58 138 6.0 9.0 0.00 0.70 0.36 96 1009.8
20260506061502 58 122 5.0 8.0 0.00 0.70 0.36 96 1009.8
20260506061402 58 130 4.0 7.0 0.00 0.70 0.36 96 1009.8
20260506061259 58 142 6.0 7.0 0.00 0.70 0.36 96 1009.9
20260506061113 58 137 5.0 7.0 0.00 0.70 0.36 96 1009.9
20260506060858 58 140 4.0 5.0 0.01 0.70 0.36 96 1009.8
20260506060824 58 124 3.0 5.0 0.01 0.70 0.36 96 1009.8
20260506060713 58 119 4.0 5.0 0.01 0.70 0.36 96 1009.9
20260506060600 58 139 3.0 5.0 0.01 0.70 0.36 96 1009.9
20260506060504 58 135 2.0 5.0 0.01 0.70 0.36 96 1009.9
20260506060401 57 140 4.0 5.0 0.01 0.70 0.36 96 1009.9
20260506060203 57 142 2.0 4.0 0.01 0.70 0.36 96 1009.9
20260506060115 57 142 4.0 4.0 0.01 0.70 0.36 96 1009.9